Location: Godiavel Galaoual
(15.2485°N, 12.6604°W)
Time: 00:44:28
(UTC+00:00)

BEESAT - Pass Details

Date: 03 August 2021
Orbit: 699 x 708 km, 98.6° (Epoch: 24 September)

Event Time Altitude Azimuth Distance (km) Brightness Sun altitude
Rises 19:32:38 0° 24° (NNE) 3,095 ? -3.7°
Reaches altitude 10° 19:35:00 10° 31° (NNE) 2,175 ? -4.3°
Maximum altitude 19:39:29 40° 101° (E) 1,033 ? -5.3°
Drops below altitude 10° 19:43:55 10° 170° (S) 2,169 ? -6.3°
Sets 19:46:17 0° 178° (S) 3,085 ? -6.8°
